Overview Statistics Trail Chart Weather Telemetry Raw packets
 

This is the latest recevied weather packets stored in our database for station/object OK1TBM-13. If no packets are shown the sender has not sent any weather packets the latest 10 day(s).

<< 25 26 27 28 29 30 31 >>
Time Temp. Humidity Pressure Rain* Wind** Luminosity Snow
1788434702 22.78° C 57% 1018.3 hPa 0 mm - 389 W/m² -
1788434402 22.22° C 57% 1018.3 hPa 0 mm - 399 W/m² -
1788433501 22.78° C 56% 1018 hPa 0 mm - 718 W/m² -
1788433201 22.22° C 58% 1018 hPa 0 mm - 484 W/m² -
1788432901 22.22° C 58% 1018 hPa 0 mm - 461 W/m² -
1788432602 22.22° C 59% 1018 hPa 0 mm - 325 W/m² -
1788432302 22.78° C 59% 1018 hPa 0 mm - 461 W/m² -
1788432002 22.78° C 58% 1018 hPa 0 mm - 657 W/m² -
1788431702 22.78° C 58% 1018 hPa 0 mm - 582 W/m² -
1788431402 22.78° C 59% 1018 hPa 0 mm - 571 W/m² -
1788431102 22.78° C 57% 1018 hPa 0 mm - 531 W/m² -
1788430802 23.33° C 59% 1018 hPa 0 mm - 667 W/m² -
1788429901 21.67° C 64% 1018.3 hPa 0 mm - 642 W/m² -
1788429601 22.22° C 64% 1018.3 hPa 0 mm - 561 W/m² -
1788428401 22.22° C 65% 1018.3 hPa 0 mm - 604 W/m² -
1788427802 22.22° C 66% 1018.3 hPa 0 mm - 583 W/m² -
1788427508 21.67° C 68% 1018.3 hPa 0 mm - 560 W/m² -
1788427202 21.67° C 68% 1018.3 hPa 0 mm - 569 W/m² -
1788426606 21.67° C 71% 1019 hPa 0 mm - 581 W/m² -
1788426001 21.11° C 71% 1019 hPa 0 mm - 563 W/m² -
1788425402 21.11° C 69% 1019 hPa 0 mm - 578 W/m² -
1788425102 21.67° C 70% 1019 hPa 0 mm - 541 W/m² -
1788424802 20.56° C 71% 1019 hPa 0 mm - 525 W/m² -
1788424502 20.56° C 73% 1019 hPa 0 mm - 513 W/m² -
1788424202 20° C 72% 1019 hPa 0 mm - 506 W/m² -

* Rain latest hour (hover to see other rain measurements)
** Current wind speed in m/s (hover to see current wind gust speed)